www.pogodaiklimat.ru

Погода и климат >> Архив погоды >> Россия >> Ненецкий АО >> Бугрино


ПОГОДА в Бугрино

  • Прогноз погоды в Бугрино
  • Монитор погоды в Бугрино

АРХИВ ПОГОДЫ в Бугрино

Время (UTC), дата Ветер
(напр.,м/с)
 
Видим.   Явления Облачность Т
(С)
Тd
(С)
f
(%)
Тe
(С)
Тes
(С)
Комфортность P
(гПа)
Po
(гПа)
Тmin
(С)
Tmax
(С)
R
(мм)
R24
(мм)
S
(см)
12 11.06 СВ 7-11
{12}
20 км 9/8 300 м
[Sc diur, vesp Ac cuf]
+4.6 -0.3 70 -1 -1 1011.8 1010.8
15 11.06 С 8-11
{12}
20 км 9/9 600 м
[Sc diur, vesp]
+2.3 -2.2 72 -4 -4 1013.0 1012.0 +4.7
18 11.06 С 7
{11}
20 км 9/9 600 м
[Sc]
+1.8 -0.8 83 -5 -5 1013.7 1012.7
21 11.06 СЗ 6 20 км 9/9 600 м
[Sc]
+2.1 +0.4 88 -4 -4 1012.9 1011.9
00 12.06 СЗ 8-11
{11}
10 км 9/9 600 м
[Sc]
+1.2 -0.1 91 -6 -6 1012.2 1011.2
03 12.06 СЗ 8-11
{13}
20 км 9/9 300 м
[Cb cap]
+2.5 0.0 84 -4 -4 1011.8 1010.8 +0.7
06 12.06 СЗ 9-16
{16}
20 км в посл. час ливневой дождь 9/8 300 м
[Cb calv Ci fib]
+3.0 +0.7 85 -4 -4 1011.9 1010.9
09 12.06 СЗ 10-14
{16}
20 км {ливн. осадки} 9/9 300 м
[Cb calv]
+4.2 +0.1 75 -2 -2 1012.7 1011.7
12 12.06 СЗ 10-15
{15}
20 км {ливн. осадки} 10/10 300 м
[Cb calv]
+3.5 +0.8 82 -3 -3 1013.7 1012.7
15 12.06 СЗ 10-13
{16}
10 км {ливн. осадки} 10/10 300 м
[Cb calv]
+2.6 +0.9 89 -5 -5 1014.5 1013.6 +4.4 0.0
18 12.06 СЗ 11-14
{16}
20 км в посл. час ливневой дождь 10/10 540 м
[Sc diur, vesp]
+2.2 +0.2 87 -6 -6 1014.6 1013.6
21 12.06 СЗ 10-14
{16}
4000 м слаб. ливневой снег 10/10 300 м
[Cb cap]
+1.3 +0.5 94 -7 -7 1014.9 1013.9
00 13.06 СЗ 11-15
{17}
20 км {ливн. осадки} 9/9 300 м
[Cb cap]
+2.2 +0.6 89 -6 -6 1014.4 1013.4
03 13.06 СЗ 11-17
{20}
20 км 10/10 450 м
[Sc]
+2.0 0.0 87 -6 -6 1014.8 1013.9 +1.2 0.4
06 13.06 СЗ 11-16
{19}
20 км 10/10 400 м
[Sc]
+2.9 0.0 81 -5 -5 1015.3 1014.4
09 13.06 СЗ 11-15
{16}
20 км 10/10 450 м
[Sc]
+3.2 +0.2 81 -4 -4 1016.3 1015.3
12 13.06 СЗ 10-15
{17}
20 км 10/10 500 м
[Sc]
+3.3 +0.1 80 -4 -4 1016.2 1015.2
15 13.06 СЗ 9-15
{17}
20 км 10/10 300 м
[St]
+2.5 -0.2 82 -5 -5 1016.2 1015.3 +3.4
18 13.06 СЗ 9-12
{16}
20 км 10/10 300 м
[St]
+1.7 -0.3 87 -6 -6 1015.4 1014.4
21 13.06 СЗ 9-12
{15}
10 км 10/10 420 м
[Sc]
+1.2 -0.7 87 -6 -6 1014.5 1013.5
00 14.06 СЗ 8-12
{13}
10 км 10/10 360 м
[St]
+1.3 -0.6 87 -6 -6 1014.0 1013.0
03 14.06 СЗ 6
{13}
20 км 9/9 300 м
[St]
+2.5 -0.1 83 -3 -3 1013.1 1012.1 +1.2
06 14.06 СЗ 7-10
{11}
20 км 9/9 600 м
[Sc]
+5.0 +0.4 72 -0 -0 1012.0 1011.0
09 14.06 З 7
{11}
20 км 9/9 600 м
[Sc]
+4.9 +1.1 76 -1 -0 1011.0 1010.0
12 14.06 З 8-12
{12}
10 км слаб. ливневой дождь 10/10 300 м
[Cb cap]
+3.8 +2.6 92 -3 -3 1010.0 1009.0
15 14.06 З 9-12
{14}
10 км слаб. ливневой дождь 10/10 300 м
[Cb cap]
+3.8 +3.2 96 -3 -3 1007.3 1006.3 +5.5 0.7
18 14.06 СЗ 6
{13}
10 км {ливн. осадки, морось} 10/10 300 м
[St]
+3.1 +2.4 95 -3 -3 1005.3 1004.4
21 14.06 СЗ 5 4000 м слаб. морось 10/10 200 м
[St]
+1.9 +1.6 98 -4 -4 1004.7 1003.7
00 15.06 СЗ 6 10 км {морось} 9/8 200 м
[St Ci fib]
+1.7 +1.1 96 -5 -5 1004.6 1003.6
03 15.06 СЗ 8-12
{12}
10 км {морось} 9/9 300 м
[St]
+2.5 +0.5 87 -4 -4 1004.7 1003.7 +1.5 0.4
06 15.06 С 8-12
{14}
10 км в посл. час ливневой снег {морось} 9/9 600 м
[Cb cap]
+3.1 +0.6 84 -3 -3 1005.0 1004.1
09 15.06 СЗ 8-12
{14}
20 км {ливн. осадки} 9/6 600 м
[Cu Sc Ci fib]
+4.2 -0.2 73 -2 -1 1005.9 1004.9
12 15.06 З 7-11
{14}
10 км слаб. ливневой дождь 10/10 300 м
[Cb cap]
+3.3 +1.8 90 -3 -3 1005.9 1004.9
15 15.06 З 10-13
{13}
10 км слаб. ливневой дождь 10/10 300 м
[Cb cap]
+3.8 +3.2 96 -3 -3 1003.8 1002.9 +4.9 0.4
18 15.06 З 7-10
{14}
10 км слаб. ливневой дождь 10/10 300 м
[Cb cap]
+3.7 +3.1 96 -2 -2 1002.6 1001.6
21 15.06 З 7-11
{11}
10 км слаб. ливневой дождь 10/10 300 м
[Cb cap]
+3.4 +3.2 99 -3 -3 1000.6 999.6
00 16.06 З 8-11
{12}
4000 м дымка {ливн. осадки} 10/10 210 м
[St]
+3.3 +3.3 100 -3 -3 998.5 997.5
03 16.06 З 7-11
{12}
10 км слаб. ливневой дождь 10/10 300 м
[Cb cap]
+3.9 +3.6 98 -2 -2 996.6 995.6 +3.3 1
06 16.06 СЗ 9-12
{13}
10 км {ливн. осадки} 10/10 300 м
[Cb calv]
+4.2 +2.0 86 -2 -2 996.6 995.6
09 16.06 З 10-14
{15}
10 км слаб. ливневой дождь 10/10 300 м
[Cb cap]
+4.2 +2.5 89 -3 -3 997.1 996.1
12 16.06 З 9-14
{16}
10 км слаб. ливневой дождь 10/10 300 м
[Cb cap]
+3.8 +2.7 93 -3 -3 997.8 996.8
15 16.06 СЗ 9-14
{17}
10 км слаб. ливневой дождь 10/10 300 м
[Cb cap]
+3.2 +2.4 94 -4 -4 997.5 996.5 +4.7 1
18 16.06 З 8-12
{15}
10 км слаб. ливневой дождь 10/10 400 м
[Cb cap]
+2.6 +1.8 94 -4 -4 997.3 996.4
21 16.06 З 9-12
{13}
10 км слаб. ливневой дождь 9/9 300 м
[Cb cap]
+2.6 +1.8 94 -5 -5 996.7 995.7
00 17.06 З 9-12
{14}
10 км {ливн. осадки} 9/0
[Ac As]
+2.0 +1.0 93 -5 -5 996.5 995.5
03 17.06 СЗ 8-12
{13}
10 км слаб. ливневой дождь 9/9 300 м
[Cb cap]
+2.7 +1.4 91 -4 -4 996.7 995.8 +1.9 0.7
06 17.06 З 9-12
{13}
10 км {ливн. осадки} 10/10 300 м
[Cb cap]
+3.0 +1.5 90 -4 -4 997.4 996.4
09 17.06 З 9-14
{15}
20 км {ливн. осадки} 9/9 300 м
[Cb cap]
+3.3 +1.1 85 -3 -3 998.4 997.5
12 17.06 З 11-15
{16}
20 км {ливн. осадки} 9/9 300 м
[St]
+4.5 +0.5 75 -2 -2 999.1 998.1
15 17.06 СЗ 9-13
{16}
10 км в посл. час ливневой снег 9/9 300 м
[Cb cap]
+3.1 +0.6 84 -4 -4 999.6 998.7 +4.9 0.3
18 17.06 З 8-12
{15}
10 км {ливн. осадки} 10/10 300 м
[Cb calv]
+2.7 +0.9 88 -4 -4 999.2 998.2
21 17.06 З 7
{16}
10 км {ливн. осадки} 9/9 600 м
[Cu Sc]
+1.3 -0.3 89 -5 -5 999.2 998.2
00 18.06 СЗ 7-12
{13}
10 км в посл. час ливневой дождь 9/9 300 м
[Cb calv]
+1.9 +0.3 89 -5 -5 999.8 998.8
03 18.06 СЗ 9-12
{12}
20 км {ливн. осадки} 8/6 300 м
[Cb calv Ci fib]
+2.8 0.0 82 -4 -4 1001.0 1000.0 +1.0 0.0
06 18.06 СЗ 8-12
{13}
20 км {ливн. осадки} 9/9 600 м
[Sc]
+4.9 +0.7 74 -1 -1 1002.2 1001.3
09 18.06 СЗ 7-10
{12}
20 км 10/10 700 м
[Sc]
+4.6 +0.9 77 -1 -1 1003.7 1002.7

 

Местоположение метеостанции Бугрино (Ненецкий АО, Россия): широта 68.80 долгота 49.33 высота над уровнем моря 7 м.

В архиве по умолчанию представлена погода в Бугрино за последнюю неделю. Архивные данные за месяц целиком и за предыдущие месяцы, начиная с января 2011 года, Вы можете получить, выбрав интересующий диапазон дат из раскрывающегося списка и нажав кнопку "Ввод!".


*Определитесь, кто Вы:
робот инопланетянин человек

Внимание! Время в таблицах - всемирное. Для получения местного времени необходимо прибавить поправку, которая равна 3 ч.

Смотрите также архив погоды в соседних городах и на ближайших метеорологических станциях:

Погода на Колгуевом Острове (Ненецкий АО, Россия) (82 км)
Погода в Сенгейском Шаре (Ненецкий АО, Россия) (86 км)
Погода в Индиге (Ненецкий АО, Россия) (127 км)
Погода на Мысе Микулкин (Ненецкий АО, Россия) (156 км)
Погода в Ходоварихе (Ненецкий АО, Россия) (178 км)
Погода в Нарьян-Маре (Ненецкий АО, Россия) (200 км)
Погода в Коткино (Ненецкий АО, Россия) (211 км)
Погода в Шойне (Ненецкий АО, Россия) (235 км)
Погода в Нижней Пеше (Ненецкий АО, Россия) (237 км)
Погода в Канином Носе (Ненецкий АО, Россия) (244 км)

Пояснения к столбцам:

Ветер - указаны скорость ветра в м/с - средняя за 10 мин, порывы в срок и между сроками (в фигурных скобках) и направление, откуда дует ветер: С - северный, СВ - северо-восточный, В - восточный, ЮВ - юго-восточный, Ю - южный, ЮЗ - юго-западный, З - западный, СЗ - северо-западный.
Видимость - горизонтальная дальность видимости в метрах или километрах. При видимости от 1 до 10 км при отсутствии осадков обычно наблюдается дымка, при ухудшении видимости до 1 км и менее - туман. В сухую погоду видимость может ухудшаться дымом, пылью или мглою.
Явления - указаны атмосферные явления, наблюдавшиеся в срок или в последний час перед сроком; фигурными скобками обозначены явления, наблюдавшиеся между сроками (за 1-3 часа до срока); квадратными скобками обозначены град или гололедные отложения с указанием их диаметра в мм.
Облачность - указаны через наклонную черту общая и нижняя облачность в баллах и высота нижней границы облаков в метрах; квадратными скобками обозначены формы облаков: Ci - перистые, Cs - перисто-слоистые, Cc - перисто-кучевые, Ac - высококучевые, As - высокослоистые, Sc - слоисто-кучевые, Ns - слоисто-дождевые, Cu - кучевые, Cb - кучево-дождевые. Подробнее классификацию облаков см. в Атласе облаков (PDF).
T - Температура воздуха - температура, измеренная на высоте 2 м над землей.
Td - Температура точки росы - температура, при понижении до которой содержащийся в воздухе водяной пар достигнет насыщения.
f - Относительная влажность воздуха - влажноcть воздуха, измеренная на высоте 2 м над землей.
Te - Эффективная температура - температура, которую ощущает одетый по сезону человек в тени. Характеристика душности погоды. При расчете учитывается влияние влажности воздуха и скорости ветра на теплоощущения человека.
Tes - Эффективная температура на солнце - температура, которую ощущает человек, с поправкой на солнечный нагрев. Характеристика знойности погоды. Зависит от высоты солнца над горизонтом, облачности и скорости ветра. Ночью, в пасмурную погоду, а также при ветре 12 м/с и более поправка равна нулю.
P - Атмосферное давление - приведенное к уровню моря атмосферное давление.
Po - Атмосферное давление - измеренное на уровне метеостанции атмосферное давление.
Tmin - Минимальная температура - минимум температуры воздуха на высоте 2 м над землей.
Tmax - Максимальная температура - максимум температуры воздуха на высоте 2 м над землей.
R - Количество осадков - Количество выпавших осадков за период времени, мм. При наведении курсора мыши на число - период времени, за который выпало указанное количество осадков.
R24 - Количество осадков - Количество выпавших осадков за 24 часа, мм.
S - Снежный покров - Высота снежного покрова, см. При наведении курсора мыши на число - состояние снежного покрова и степень покрытия местности в баллах.